When you browse on this site, cookies collect data to enhance your experience and personalize the content and advertising you see.
Visit our Privacy Policy to learn more. By continuing to use the site, you agree to this use of cookies and data.

Stündliche Wetter Wuppertal

Heute, 9 Juli, Donnerstag

Zeit Temperatur Niederschläge Wind Luftdruck Luftfeuchtigkeit
00:00 +15°C° 0.3 mm 2 m/S 745 mmHg 94%
01:00 +15°C° 0.2 mm 2 m/S 744 mmHg 95%
02:00 +15°C° 0.2 mm 2 m/S 744 mmHg 95%
03:00 +16°C° 0.2 mm 3 m/S 744 mmHg 96%
04:00 +16°C° 0.3 mm 3 m/S 743 mmHg 95%
05:00 +16°C° 0.3 mm 3 m/S 743 mmHg 95%
06:00 +15°C° 0.3 mm 4 m/S 743 mmHg 94%
07:00 +17°C° 0.1 mm 4 m/S 743 mmHg 92%
08:00 +18°C° 0.1 mm 4 m/S 743 mmHg 89%
09:00 +18°C° 0.1 mm 4 m/S 743 mmHg 86%
10:00 +20°C° 0 mm 5 m/S 743 mmHg 76%
11:00 +22°C° 0 mm 5 m/S 743 mmHg 67%
12:00 +23°C° 0 mm 6 m/S 743 mmHg 57%
13:00 +23°C° 0 mm 6 m/S 742 mmHg 58%
14:00 +23°C° 0 mm 5 m/S 742 mmHg 58%
15:00 +23°C° 0 mm 5 m/S 742 mmHg 58%
16:00 +22°C° 0 mm 5 m/S 742 mmHg 65%
17:00 +21°C° 0 mm 4 m/S 741 mmHg 71%
18:00 +19°C° 0 mm 4 m/S 741 mmHg 77%
19:00 +19°C° 0 mm 3 m/S 741 mmHg 79%
20:00 +19°C° 0 mm 3 m/S 742 mmHg 80%
21:00 +18°C° 0 mm 3 m/S 742 mmHg 82%
22:00 +18°C° 0 mm 3 m/S 742 mmHg 83%
23:00 +18°C° 0 mm 3 m/S 741 mmHg 83%

Morgen, 10 Juli, Freitag

Zeit Temperatur Niederschläge Wind Luftdruck Luftfeuchtigkeit
00:00 +17°C° 0 mm 3 m/S 741 mmHg 84%
01:00 +17°C° 0.1 mm 3 m/S 741 mmHg 85%
02:00 +17°C° 0.1 mm 3 m/S 741 mmHg 86%
03:00 +17°C° 0.1 mm 3 m/S 740 mmHg 87%
04:00 +17°C° 0 mm 3 m/S 740 mmHg 86%
05:00 +17°C° 0 mm 3 m/S 740 mmHg 85%
06:00 +17°C° 0 mm 3 m/S 740 mmHg 84%
07:00 +17°C° 0.2 mm 3 m/S 740 mmHg 84%
08:00 +17°C° 0.2 mm 4 m/S 740 mmHg 83%
09:00 +17°C° 0.2 mm 4 m/S 741 mmHg 83%
10:00 +17°C° 0.3 mm 3 m/S 741 mmHg 84%
11:00 +17°C° 0.3 mm 3 m/S 741 mmHg 84%
12:00 +17°C° 0.3 mm 2 m/S 742 mmHg 84%
13:00 +17°C° 0.2 mm 2 m/S 742 mmHg 79%
14:00 +18°C° 0.2 mm 2 m/S 742 mmHg 74%
15:00 +19°C° 0.2 mm 3 m/S 743 mmHg 69%
16:00 +18°C° 0.6 mm 3 m/S 743 mmHg 73%
17:00 +17°C° 0.6 mm 3 m/S 743 mmHg 76%
18:00 +17°C° 0.6 mm 4 m/S 744 mmHg 79%
19:00 +14°C° 0 mm 3 m/S 745 mmHg 81%
20:00 +13°C° 0 mm 3 m/S 745 mmHg 82%
21:00 +13°C° 0 mm 2 m/S 746 mmHg 84%
22:00 +12°C° 0 mm 2 m/S 747 mmHg 84%
23:00 +12°C° 0 mm 1 m/S 747 mmHg 85%

übermorgen, 11 Juli, Samstag

Zeit Temperatur Niederschläge Wind Luftdruck Luftfeuchtigkeit
00:00 +11°C° 0 mm 1 m/S 747 mmHg 85%
01:00 +11°C° 0 mm 1 m/S 747 mmHg 85%
02:00 +10°C° 0 mm 0 m/S 748 mmHg 86%
03:00 +9°C° 0 mm 0 m/S 748 mmHg 86%
04:00 +10°C° 0 mm 0 m/S 748 mmHg 83%
05:00 +11°C° 0 mm 0 m/S 749 mmHg 81%
06:00 +13°C° 0 mm 1 m/S 749 mmHg 78%
07:00 +15°C° 0 mm 1 m/S 749 mmHg 70%
08:00 +16°C° 0 mm 1 m/S 750 mmHg 61%
09:00 +18°C° 0 mm 2 m/S 750 mmHg 53%
10:00 +18°C° 0 mm 2 m/S 750 mmHg 51%
11:00 +18°C° 0 mm 2 m/S 750 mmHg 50%
12:00 +19°C° 0 mm 2 m/S 751 mmHg 49%
13:00 +19°C° 0 mm 2 m/S 751 mmHg 48%
14:00 +19°C° 0 mm 2 m/S 751 mmHg 47%
15:00 +20°C° 0 mm 2 m/S 751 mmHg 46%
16:00 +19°C° 0.2 mm 2 m/S 751 mmHg 53%
17:00 +18°C° 0.2 mm 2 m/S 751 mmHg 60%
18:00 +17°C° 0.2 mm 2 m/S 751 mmHg 67%
19:00 +16°C° 0 mm 2 m/S 752 mmHg 71%
20:00 +15°C° 0 mm 2 m/S 752 mmHg 75%
21:00 +13°C° 0 mm 2 m/S 752 mmHg 79%
22:00 +13°C° 0 mm 1 m/S 752 mmHg 80%
23:00 +13°C° 0 mm 1 m/S 752 mmHg 81%

12 Juli, Sonntag

Zeit Temperatur Niederschläge Wind Luftdruck Luftfeuchtigkeit
00:00 +12°C° 0 mm 1 m/S 753 mmHg 83%
01:00 +12°C° 0 mm 1 m/S 753 mmHg 84%
02:00 +11°C° 0 mm 1 m/S 752 mmHg 84%
03:00 +11°C° 0 mm 1 m/S 752 mmHg 85%
04:00 +12°C° 0 mm 1 m/S 753 mmHg 82%
05:00 +13°C° 0 mm 1 m/S 753 mmHg 78%
06:00 +14°C° 0 mm 1 m/S 753 mmHg 75%
07:00 +16°C° 0 mm 1 m/S 753 mmHg 65%
08:00 +19°C° 0 mm 1 m/S 753 mmHg 54%
09:00 +21°C° 0 mm 1 m/S 754 mmHg 44%
10:00 +21°C° 0 mm 2 m/S 753 mmHg 41%
11:00 +23°C° 0 mm 2 m/S 753 mmHg 37%
12:00 +24°C° 0 mm 2 m/S 753 mmHg 34%
13:00 +24°C° 0 mm 2 m/S 753 mmHg 34%
14:00 +24°C° 0 mm 2 m/S 752 mmHg 34%
15:00 +24°C° 0 mm 2 m/S 752 mmHg 34%
16:00 +22°C° 0 mm 3 m/S 752 mmHg 39%
17:00 +21°C° 0 mm 3 m/S 752 mmHg 44%
18:00 +20°C° 0 mm 3 m/S 751 mmHg 48%
19:00 +19°C° 0 mm 3 m/S 751 mmHg 53%
20:00 +17°C° 0 mm 2 m/S 752 mmHg 57%
21:00 +16°C° 0 mm 2 m/S 752 mmHg 62%
22:00 +15°C° 0 mm 2 m/S 751 mmHg 65%
23:00 +14°C° 0 mm 2 m/S 751 mmHg 69%

13 Juli, Montag

Zeit Temperatur Niederschläge Wind Luftdruck Luftfeuchtigkeit
00:00 +14°C° 0 mm 2 m/S 751 mmHg 72%
01:00 +14°C° 0 mm 2 m/S 750 mmHg 72%
02:00 +13°C° 0 mm 1 m/S 750 mmHg 73%
03:00 +13°C° 0 mm 1 m/S 750 mmHg 74%
04:00 +14°C° 0 mm 1 m/S 750 mmHg 70%
05:00 +15°C° 0 mm 1 m/S 749 mmHg 66%
06:00 +16°C° 0 mm 1 m/S 749 mmHg 63%
07:00 +19°C° 0 mm 1 m/S 749 mmHg 57%
08:00 +21°C° 0 mm 1 m/S 749 mmHg 51%
09:00 +22°C° 0 mm 1 m/S 749 mmHg 45%
10:00 +24°C° 0 mm 1 m/S 748 mmHg 41%
11:00 +25°C° 0 mm 1 m/S 748 mmHg 37%
12:00 +26°C° 0 mm 1 m/S 747 mmHg 33%
13:00 +26°C° 0 mm 1 m/S 747 mmHg 33%
14:00 +26°C° 0 mm 1 m/S 746 mmHg 33%
15:00 +26°C° 0 mm 1 m/S 746 mmHg 33%
16:00 +25°C° 0 mm 1 m/S 745 mmHg 38%
17:00 +24°C° 0 mm 2 m/S 745 mmHg 44%
18:00 +23°C° 0 mm 2 m/S 745 mmHg 50%
19:00 +20°C° 0 mm 2 m/S 745 mmHg 54%
20:00 +19°C° 0 mm 2 m/S 744 mmHg 58%
21:00 +18°C° 0 mm 2 m/S 744 mmHg 62%
22:00 +17°C° 0 mm 2 m/S 744 mmHg 63%
23:00 +17°C° 0 mm 2 m/S 744 mmHg 63%

14 Juli, Dienstag

Zeit Temperatur Niederschläge Wind Luftdruck Luftfeuchtigkeit
00:00 +17°C° 0 mm 2 m/S 743 mmHg 64%
01:00 +16°C° 0 mm 2 m/S 743 mmHg 64%
02:00 +16°C° 0 mm 1 m/S 743 mmHg 64%
03:00 +16°C° 0 mm 1 m/S 743 mmHg 64%
04:00 +18°C° 0 mm 1 m/S 743 mmHg 63%
05:00 +18°C° 0 mm 1 m/S 743 mmHg 63%
06:00 +19°C° 0 mm 1 m/S 743 mmHg 62%
07:00 +19°C° 0.1 mm 1 m/S 743 mmHg 61%
08:00 +19°C° 0.1 mm 2 m/S 743 mmHg 61%
09:00 +20°C° 0.1 mm 2 m/S 743 mmHg 60%
10:00 +20°C° 0.4 mm 2 m/S 743 mmHg 63%
11:00 +19°C° 0.4 mm 3 m/S 743 mmHg 65%
12:00 +19°C° 0.4 mm 3 m/S 743 mmHg 68%
13:00 +20°C° 0.2 mm 3 m/S 743 mmHg 62%
14:00 +21°C° 0.2 mm 4 m/S 743 mmHg 57%
15:00 +21°C° 0.2 mm 4 m/S 743 mmHg 51%
16:00 +21°C° 0 mm 4 m/S 743 mmHg 54%
17:00 +20°C° 0 mm 3 m/S 743 mmHg 56%
18:00 +20°C° 0 mm 3 m/S 744 mmHg 59%
19:00 +18°C° 0 mm 2 m/S 744 mmHg 64%
20:00 +17°C° 0 mm 2 m/S 744 mmHg 70%
21:00 +15°C° 0 mm 1 m/S 745 mmHg 75%
22:00 +15°C° 0 mm 2 m/S 745 mmHg 77%
23:00 +15°C° 0 mm 2 m/S 745 mmHg 78%
Mehr zeigen